[[{"header":{"parameterUnit":"m.s-1","parameterCategory":1,"la1":30.2991,"la2":30.254,"lo1":-89.0895,"lo2":-89.0444,"dy":0.0017,"dx":0.0017,"nx":28,"ny":28,"refTime":"2024-07-11T21:00:00:Z","depth":0,"parameterNumber":2,"parameterNumberName":"U-component_of_WINDS"},"data":[0,0,0,0,0,0,0,0,0,0,0,0,0,0,0,0,0,0,0,0,0,0,0,0,0,0,0,0,0,0,0,0,0,0,0,0,0,0,0,0,0,0,0,0,0,0,0,0,0,0,0,0,0,0,0,0,0,0,0.9485,0.9486,0,0.9617,0.9619,0.962,0.9628,0.9626,0.9624,0.9623,0.9766,0.9771,0.9776,0,0,0,0,0,0,0,0,0,0,0,0,0,0.9244,0.9248,0.9485,0.9486,0.9488,0.9617,0.9619,0.9621,0.9628,0.9626,0.9624,0.9622,0.9764,0.977,0.9777,0,0,0,0,0,0,0,0,0,0,0,0,0,0.936,0.925,0.9484,0.9507,0.951,0.9617,0.9619,0.9621,0.9628,0.9626,0.9624,0.9621,0.9762,0.977,0.9778,0.9873,0,0,0.9802,0.9805,0,0,0,0,0,0,0,0,0.9353,0.9369,0.9502,0.9506,0.9509,0.9603,0.9586,0.9706,0.9629,0.9584,0.9623,0.962,0.9714,0.9726,0.9756,0.9879,0.9886,0.9802,0.9807,0.981,0.9813,0,0,0,0,0,0,0,0.9345,0.9363,0.9537,0.9504,0.9509,0.9512,0.9526,0.9609,0.9661,0.9587,0.9588,0.9603,0.9716,0.9748,0.9759,0.9888,0.9802,0.9809,0.9814,0.9817,1.0096,1.0098,0,0,0,0,0,0,0.9332,0.9356,0.9533,0.9541,0.9424,0.9519,0.9534,0.9576,0.966,0.967,0.9605,0.9603,0.9736,0.975,0.9765,0.9881,0.981,0.9818,0.9822,1.0093,1.0096,1.0099,0,0,0,0,0,0,0.9327,0.9348,0.9528,0.9449,0.9472,0.9525,0.9572,0.958,0.9612,0.9673,0.9683,0.9629,0.9735,0.9753,0.9845,0.9886,0.9821,0.9828,1.009,1.0094,1.0098,1.0116,0,0,0,0,0,0,0.932,0.9346,0.9381,0.945,0.9476,0.9604,0.9574,0.9584,0.9625,0.9623,0.9698,0.9708,0.9734,0.9833,0.9853,0.9896,0.9835,1.0087,1.0092,1.0097,1.0112,1.012,1.0127,0,0,0,0,0,0.9311,0.9382,0.9383,0.9404,0.9521,0.9607,0.9622,0.9649,0.9628,0.9665,0.9704,0.9705,0.9878,0.9843,0.9865,0.9911,1.0084,1.009,1.0096,1.0108,1.0118,1.0127,0,0,0,0,0,0,0.932,0.9392,0.9393,0.9488,0.9541,0.9608,0.9655,0.9659,0.9721,0.9718,0.9751,0.9768,0.9858,0.9894,0.9853,1.0008,0.9979,0.999,0.9981,0.9991,0.9998,0.9988,0.9841,0,0,0,0,0,0.9332,0.9393,0.9454,0.9532,0.9558,0.9602,0.964,0.9656,0.9714,0.9737,0.9783,0.984,0.9907,0.9951,1.0016,1.0117,1.0134,1.016,1.0167,1.0173,1.0182,1.0238,1.025,1.0119,1.0119,1.0119,0,0,0.936,0.9407,0.9444,0.9535,0.9578,0.9642,0.9621,0.9691,0.9739,0.9748,0.9837,0.9872,0.9939,1.0035,1.008,1.0068,1.0222,1.0181,1.0185,1.0191,1.0246,1.0258,1.0269,1.0123,1.0123,1.0122,0,0,0.9442,0.9484,0.9553,0.9596,0.966,0.9688,0.9705,0.9771,0.9794,0.9883,0.9891,0.9951,1.0066,1.0112,1.0151,1.0251,1.0255,1.0271,1.0311,1.0365,1.0376,1.0385,1.0421,1.0433,1.028,1.028,1.028,0,0.9469,0.9564,0.9589,0.9658,0.9698,0.9706,0.9778,0.9819,0.9902,0.9931,0.9915,1.0059,1.0104,1.0212,1.0236,1.0267,1.0288,1.0263,1.0372,1.0381,1.0391,1.0425,1.0438,1.0282,1.0282,1.0281,1.0281,0,0.9594,0.966,0.9709,0.9786,0.9832,0.9902,0.9939,0.9983,0.9995,1.0025,1.0117,1.0171,1.0247,1.0274,1.0287,1.0383,1.0373,1.0364,1.0337,1.0404,1.0437,1.0451,1.0284,1.0283,1.0283,1.0283,0,0,0.9687,0.9775,0.9793,0.9828,0.9899,0.9952,1.0023,1.0095,1.0132,1.0189,1.025,1.0347,1.0338,1.0382,1.0401,1.0449,1.0524,1.0434,1.0436,1.0449,1.0634,1.064,1.0655,1.0526,1.0529,1.0531,1.0628,0,0.9778,0.9901,0.9925,1.0033,1.0095,1.0104,1.0166,1.0217,1.0247,1.0306,1.034,1.0408,1.0392,1.0418,1.0465,1.0505,1.0562,1.0498,1.0585,1.0588,1.0569,1.0672,1.068,1.0768,1.0641,1.0643,1.0645,0,0.9901,0.9958,1.0071,1.0133,1.016,1.0215,1.0283,1.0338,1.0397,1.0416,1.0464,1.0477,1.0553,1.0521,1.0626,1.0582,1.0619,1.0644,1.0648,1.0658,1.0621,1.0685,1.0798,1.0811,1.0666,1.0664,1.0662,0,0.9957,1.0063,1.0145,1.0174,1.0249,1.0287,1.032,1.0376,1.0418,1.0478,1.0505,1.0574,1.0612,1.0666,1.0698,1.0672,1.0801,1.0772,1.082,1.0819,1.0848,1.0846,1.0968,1.0871,1.0871,1.087,1.087,0,1.0057,1.0126,1.0171,1.0221,1.0299,1.0327,1.0404,1.0437,1.0487,1.0545,1.0557,1.0612,1.0651,1.0711,1.0737,1.082,1.0838,1.0856,1.0862,1.0855,1.0853,1.0881,1.0876,1.0874,1.0873,1.0873,1.0872,0,1.0133,1.0166,1.0255,1.0318,1.0335,1.039,1.0444,1.0494,1.0524,1.0597,1.0616,1.0664,1.0736,1.0773,1.0863,1.0881,1.0975,1.0977,1.0954,1.0957,1.1003,1.0998,1.1148,1.1169,1.1057,1.1058,1.1059,0,1.0195,1.0248,1.0315,1.0353,1.0387,1.0449,1.0491,1.052,1.0564,1.0634,1.0676,1.0747,1.0807,1.0921,1.0966,1.1035,1.1039,1.1087,1.105,1.1041,1.104,1.1037,1.1042,1.1094,1.1095,1.1096,1.1096,0,1.03,1.0313,1.0372,1.0436,1.0485,1.0538,1.059,1.0621,1.0659,1.0708,1.078,1.0825,1.0916,1.0988,1.106,1.1097,1.1104,1.1107,1.1122,1.1116,1.11,1.1109,1.0972,1.1104,1.1103,1.1103,1.1102,1.1102,1.0372,1.0419,1.0473,1.0538,1.058,1.0628,1.0677,1.0712,1.0772,1.0847,1.0861,1.0938,1.0996,1.1093,1.1131,1.1193,1.1183,1.1205,1.121,1.1215,1.1217,1.109,1.1206,1.1206,1.1206,1.1206,1.1206,0,1.0478,1.0513,1.0572,1.0643,1.0694,1.0693,1.0751,1.0794,1.0861,1.0913,1.097,1.1053,1.1122,1.1171,1.1242,1.1282,1.1287,1.13,1.1297,1.1306,1.1222,1.1202,1.1294,1.1294,1.1294,1.1294,1.1294,1.1294,1.0539,1.0619,1.0639,1.074,1.0775,1.0848,1.0881,1.0926,1.0967,1.1059,1.1115,1.1146,1.1197,1.1271,1.1335,1.1348,1.1374,1.1387,1.1399,1.1321,1.1312,1.1303,1.1284,1.1392,1.1392,1.1478,1.1479,1.1479]},{"header":{"parameterUnit":"m.s-1","parameterCategory":1,"la1":30.2991,"la2":30.254,"lo1":-89.0895,"lo2":-89.0444,"dy":0.0017,"dx":0.0017,"nx":28,"ny":28,"refTime":"2024-07-11T21:00:00:Z","depth":0,"parameterNumber":3,"parameterNumberName":"V-component_of_WINDS"},"data":[0,0,0,0,0,0,0,0,0,0,0,0,0,0,0,0,0,0,0,0,0,0,0,0,0,0,0,0,0,0,0,0,0,0,0,0,0,0,0,0,0,0,0,0,0,0,0,0,0,0,0,0,0,0,0,0,0,0,2.881,2.881,0,2.8848,2.8848,2.8848,2.8883,2.8883,2.8883,2.8884,2.8919,2.892,2.892,0,0,0,0,0,0,0,0,0,0,0,0,0,2.8761,2.8762,2.881,2.881,2.8811,2.8848,2.8848,2.8849,2.8882,2.8883,2.8883,2.8884,2.8919,2.892,2.892,0,0,0,0,0,0,0,0,0,0,0,0,0,2.8789,2.8762,2.8809,2.8832,2.8834,2.8847,2.8848,2.8849,2.8882,2.8883,2.8884,2.8884,2.8919,2.892,2.892,2.8913,0,0,2.8923,2.8923,0,0,0,0,0,0,0,0,2.8787,2.8791,2.8828,2.883,2.8833,2.8861,2.8844,2.887,2.8882,2.8864,2.8884,2.8884,2.8899,2.8902,2.8907,2.8915,2.8917,2.8923,2.8924,2.8924,2.8924,0,0,0,0,0,0,0,2.8785,2.8789,2.8825,2.8829,2.8832,2.8838,2.8843,2.8849,2.8877,2.8866,2.8868,2.8872,2.8901,2.8906,2.8908,2.8917,2.8923,2.8924,2.8924,2.8925,2.8918,2.8917,0,0,0,0,0,0,2.8781,2.8787,2.8823,2.8826,2.8811,2.8839,2.8844,2.8851,2.8878,2.8882,2.8872,2.8874,2.8905,2.8907,2.891,2.8901,2.8924,2.8925,2.8925,2.8918,2.8918,2.8917,0,0,0,0,0,0,2.8779,2.8783,2.8822,2.8807,2.8813,2.8839,2.8847,2.8852,2.8858,2.8882,2.8887,2.8873,2.8905,2.8909,2.8912,2.8903,2.8925,2.8926,2.8919,2.8918,2.8917,2.8885,0,0,0,0,0,0,2.8778,2.8783,2.8782,2.8807,2.8813,2.8825,2.8847,2.8852,2.886,2.8863,2.8885,2.8889,2.8906,2.891,2.8913,2.8905,2.8927,2.892,2.8919,2.8918,2.8887,2.8883,2.888,0,0,0,0,0,2.8776,2.8771,2.8782,2.8786,2.8813,2.8824,2.8828,2.8848,2.8859,2.8857,2.8872,2.8888,2.8904,2.891,2.8913,2.8905,2.8921,2.8919,2.8918,2.8889,2.8884,2.888,0,0,0,0,0,0,2.8744,2.8775,2.8787,2.879,2.8804,2.883,2.8828,2.8843,2.8854,2.8856,2.888,2.8885,2.8885,2.8896,2.8902,2.8898,2.8914,2.8913,2.8891,2.8887,2.8884,2.888,2.8927,0,0,0,0,0,2.8737,2.8745,2.8772,2.8772,2.8778,2.8802,2.8808,2.8822,2.8837,2.8843,2.8859,2.8872,2.8879,2.8884,2.8893,2.8889,2.8893,2.8885,2.8881,2.8878,2.8876,2.8873,2.8869,2.8912,2.8912,2.8912,0,0,2.8724,2.8742,2.8745,2.8766,2.8779,2.8784,2.8807,2.8813,2.8817,2.8844,2.8848,2.8859,2.8875,2.8874,2.8875,2.8883,2.8865,2.8876,2.8873,2.8874,2.8871,2.8867,2.8863,2.8911,2.8911,2.8911,0,0,2.8701,2.8717,2.8718,2.873,2.8748,2.8764,2.8764,2.8786,2.8795,2.88,2.882,2.8824,2.8837,2.8847,2.8853,2.8832,2.8846,2.8834,2.8815,2.8811,2.8807,2.8804,2.8795,2.8791,2.8833,2.8832,2.8832,0,2.8682,2.8693,2.8716,2.872,2.8728,2.8753,2.8752,2.8763,2.8783,2.8786,2.8796,2.8811,2.8824,2.8824,2.8819,2.8824,2.8823,2.8831,2.8806,2.8804,2.8801,2.8792,2.8789,2.8831,2.8831,2.8831,2.8831,0,2.8667,2.8674,2.8672,2.8691,2.8698,2.87,2.8721,2.8726,2.8739,2.8753,2.8755,2.8771,2.8782,2.8783,2.8796,2.8785,2.8789,2.8802,2.8818,2.8795,2.8787,2.8784,2.8828,2.8829,2.8829,2.883,0,0,2.8627,2.8657,2.8656,2.8663,2.8685,2.869,2.8691,2.8703,2.8705,2.8717,2.8718,2.8727,2.8739,2.8746,2.8761,2.8757,2.8736,2.877,2.8771,2.8762,2.8722,2.8711,2.8707,2.8746,2.8746,2.8745,2.872,0,2.8607,2.8613,2.8633,2.8632,2.8637,2.866,2.8661,2.8673,2.8685,2.869,2.8703,2.8708,2.8724,2.8728,2.8726,2.874,2.8728,2.8742,2.8745,2.8745,2.8739,2.8703,2.8692,2.8668,2.8717,2.8717,2.8716,0,2.8586,2.8596,2.8596,2.8615,2.8617,2.8618,2.8629,2.8634,2.8647,2.8656,2.8663,2.8678,2.8679,2.8695,2.8695,2.8703,2.8706,2.8712,2.8711,2.8712,2.8728,2.8701,2.866,2.8656,2.8712,2.8712,2.8713,0,2.8554,2.8568,2.8569,2.8575,2.8598,2.8597,2.8606,2.862,2.8625,2.8633,2.8636,2.8645,2.8649,2.8654,2.867,2.8681,2.8668,2.8685,2.8673,2.8673,2.8669,2.8669,2.8627,2.8673,2.8673,2.8673,2.8673,0,2.853,2.8528,2.8555,2.8556,2.8554,2.8575,2.8572,2.8583,2.8594,2.8596,2.8616,2.8616,2.8639,2.8641,2.8654,2.8651,2.8653,2.8659,2.8662,2.8656,2.8655,2.8657,2.8659,2.8672,2.8672,2.8672,2.8672,0,2.8494,2.8513,2.8515,2.8535,2.854,2.8537,2.8554,2.8554,2.8567,2.8568,2.857,2.8589,2.8593,2.861,2.8618,2.8627,2.8618,2.8626,2.8614,2.8616,2.8602,2.8602,2.8559,2.8553,2.8604,2.8603,2.8603,0,2.8477,2.8476,2.8496,2.8499,2.8507,2.8511,2.8515,2.8536,2.8539,2.8552,2.855,2.8556,2.8561,2.8565,2.8579,2.8585,2.8591,2.8576,2.8592,2.8586,2.8589,2.8588,2.8587,2.8572,2.8571,2.8571,2.857,0,2.8444,2.8452,2.8459,2.8467,2.8472,2.8479,2.8488,2.8489,2.8511,2.8513,2.8517,2.8521,2.8529,2.8533,2.854,2.8548,2.8562,2.8565,2.8562,2.8556,2.8548,2.855,2.8602,2.8566,2.8566,2.8567,2.8567,2.8567,2.8416,2.8415,2.8428,2.8434,2.8442,2.8449,2.8449,2.8462,2.8466,2.8474,2.8485,2.8487,2.8497,2.8508,2.8514,2.8515,2.8523,2.852,2.8518,2.8517,2.8513,2.8549,2.8517,2.8517,2.8517,2.8517,2.8517,0,2.8382,2.8391,2.8396,2.8407,2.841,2.8424,2.8433,2.8435,2.8436,2.8445,2.845,2.8453,2.8456,2.847,2.8474,2.8472,2.8478,2.8472,2.8472,2.8473,2.8506,2.8508,2.8467,2.8467,2.8467,2.8467,2.8467,2.8467,2.8365,2.8363,2.8373,2.8375,2.8384,2.8386,2.839,2.8395,2.8402,2.8405,2.8408,2.8417,2.8427,2.8432,2.8435,2.8438,2.8438,2.843,2.8435,2.8466,2.8471,2.8475,2.8477,2.843,2.843,2.8401,2.8401,2.8401]}]]